Location: Degersen
(52.2871°N, 9.5716°E)
Time: 23:45:16
(UTC+00:00)

Cosmos 1633 Rocket - Pass Details

Date: 20 January 2026
Orbit: 600 x 616 km, 82.5° (Epoch: 9 February)

Event Time Altitude Azimuth Distance (km) Brightness Sun altitude
Rises 05:12:32 0° 182° (S) 2,853 6.6 -18.8°
Reaches altitude 10° 05:14:44 10° 180° (S) 1,952 5.7 -18.5°
Maximum altitude 05:19:02 69° 97° (E) 653 3.3 -17.8°
Drops below altitude 10° 05:23:20 10° 15° (NNE) 1,959 5.7 -17.2°
Sets 05:25:33 0° 13° (NNE) 2,866 6.5 -16.9°
